Погода в Хондергее

Россия / Республика Тыва     51°07′35″N   91°37′08″E
темп.,
°C
ветер,
м/с
пор.,
м/с
влажн.,
%
обл.,
%
осадки,
мм/ч
давл.,
гПа
погр.,
м
11 апреля, вс
вс1101:00−1ссв11501 0.0 103410
04:00−3з01610 0.0 103610
07:00−3ююз11630 0.0 103922
10:00+2зсз33430 0.0 1038982
13:00+4ссз22260 0.0 10361275
16:00+6с12180 0.0 10341244
19:00+7з112210 0.0 103416
22:00+3ю3328100 0.0 103629
12 апреля, пн
пн1201:00+2ююв3332100 0.0 103636
04:000ю22345 0.0 103512
07:000ю223469 0.0 103615
10:00+5ссз222237 0.0 1034533
13:00+9сз341656 0.0 1030941
16:00+12сз231497 0.0 1026948
19:00+11св1220100 0.0 102511
22:00+7ю222617 0.0 102714
13 апреля, вт
вт1301:00+6ю223488 0.0 102612
04:00+4ю224189 0.0 102515
07:00+4ю224424 0.0 102513
10:00+9зсз22315 0.0 1022518
13:00+14зсз3426100 0.0 10171047
16:00+12ссв6835100 0.0 10171928
19:00+7ссз8153314 0.1 10221615
22:00+3зсз22430 0.0 102734
14 апреля, ср
ср1401:000з22385 0.0 102932
04:00−2юз004080 0.0 103010
07:00−1ю113893 0.0 103112
10:00+3з232558 0.0 1029749
13:00+7з3723100 0.0 10262245
16:00+10ссз71024100 0.0 10222625
19:00+8с573266 0.0 1023610
22:00+5ююв1141100 0.0 102411
15 апреля, чт
чт1501:00+4с114699 0.0 102313
04:00+3зюз0051100 0.0 102210
07:00+3юз115190 0.0 102311
10:00+7з344413 0.0 1021810
13:00+11зсз363593 0.0 10181919
16:00+14ссз572691 0.0 10162534
19:00+11ссз34321 0.0 1017216
22:00+7в11455 0.0 101910